[[{"header":{"parameterUnit":"m.s-1","parameterCategory":1,"la1":30.2991,"la2":30.254,"lo1":-89.0895,"lo2":-89.0444,"dy":0.0017,"dx":0.0017,"nx":28,"ny":28,"refTime":"2023-09-10T09:00:00:Z","depth":0,"parameterNumber":2,"parameterNumberName":"U-component_of_WINDS"},"data":[0,0,0,0,0,0,0,0,0,0,0,0,0,0,0,0,0,0,0,0,0,0,0,0,0,0,0,0,0,0,0,0,0,0,0,0,0,0,0,0,0,0,0,0,0,0,0,0,0,0,0,0,0,0,0,0,0,0,-0.4373,-0.4373,0,-0.4381,-0.4381,-0.4381,-0.4312,-0.431,-0.4308,-0.4307,-0.4318,-0.432,-0.4322,0,0,0,0,0,0,0,0,0,0,0,0,0,-0.4299,-0.4301,-0.4373,-0.4373,-0.4373,-0.4381,-0.4381,-0.4382,-0.4313,-0.431,-0.4308,-0.4306,-0.4318,-0.432,-0.4323,0,0,0,0,0,0,0,0,0,0,0,0,0,-0.4322,-0.4301,-0.4373,-0.434,-0.4337,-0.4381,-0.4381,-0.4382,-0.4313,-0.431,-0.4307,-0.4305,-0.4317,-0.432,-0.4323,-0.4401,0,0,-0.4333,-0.4334,0,0,0,0,0,0,0,0,-0.4321,-0.4325,-0.4344,-0.4342,-0.4339,-0.4343,-0.4359,-0.4388,-0.4314,-0.4322,-0.4307,-0.4303,-0.4329,-0.4331,-0.4339,-0.4401,-0.4402,-0.4333,-0.4335,-0.4336,-0.4337,0,0,0,0,0,0,0,-0.4319,-0.4324,-0.4376,-0.4345,-0.4341,-0.4325,-0.4325,-0.4365,-0.4342,-0.4321,-0.4316,-0.4318,-0.4327,-0.4336,-0.4339,-0.4402,-0.4333,-0.4336,-0.4338,-0.4339,-0.4528,-0.4531,0,0,0,0,0,0,-0.4322,-0.4323,-0.4376,-0.4377,-0.4322,-0.4329,-0.4329,-0.4345,-0.4341,-0.4338,-0.4321,-0.4315,-0.4332,-0.4335,-0.4339,-0.4431,-0.4336,-0.4339,-0.4341,-0.4525,-0.4529,-0.4532,0,0,0,0,0,0,-0.432,-0.4327,-0.4376,-0.4348,-0.4353,-0.4333,-0.4351,-0.4346,-0.4355,-0.4341,-0.4336,-0.4334,-0.433,-0.4334,-0.4386,-0.443,-0.4341,-0.4343,-0.4521,-0.4526,-0.453,-0.4614,0,0,0,0,0,0,-0.4318,-0.4327,-0.4356,-0.4349,-0.4355,-0.4422,-0.4354,-0.4348,-0.4361,-0.4353,-0.4352,-0.4349,-0.4328,-0.4381,-0.4389,-0.4433,-0.4346,-0.4517,-0.4523,-0.4529,-0.4608,-0.4621,-0.4633,0,0,0,0,0,-0.4316,-0.438,-0.4358,-0.4365,-0.4391,-0.4425,-0.4428,-0.4402,-0.4364,-0.4394,-0.4384,-0.4349,-0.4423,-0.4387,-0.4395,-0.4441,-0.4514,-0.4522,-0.4528,-0.4602,-0.4619,-0.4633,0,0,0,0,0,0,-0.4394,-0.4379,-0.4354,-0.4418,-0.4423,-0.4413,-0.445,-0.442,-0.4437,-0.443,-0.4396,-0.4396,-0.4454,-0.4451,-0.4412,-0.4515,-0.4462,-0.4471,-0.4515,-0.4531,-0.4544,-0.4545,-0.4349,0,0,0,0,0,-0.4419,-0.4447,-0.4432,-0.4489,-0.4493,-0.4471,-0.4485,-0.4463,-0.4468,-0.447,-0.4464,-0.4471,-0.4495,-0.4512,-0.4534,-0.4605,-0.4605,-0.464,-0.4653,-0.4664,-0.4673,-0.4711,-0.4727,-0.4555,-0.4555,-0.4555,0,0,-0.447,-0.4465,-0.4485,-0.4505,-0.4507,-0.4537,-0.4474,-0.4509,-0.4532,-0.4476,-0.4524,-0.452,-0.4525,-0.4586,-0.4613,-0.4587,-0.472,-0.4673,-0.4681,-0.4685,-0.472,-0.4736,-0.4751,-0.456,-0.4559,-0.4558,0,0,-0.458,-0.4578,-0.4627,-0.4629,-0.4631,-0.4615,-0.4627,-0.4621,-0.4616,-0.4663,-0.4622,-0.4648,-0.4691,-0.4696,-0.4705,-0.4813,-0.4783,-0.4821,-0.4889,-0.4927,-0.4941,-0.4953,-0.4993,-0.5008,-0.483,-0.483,-0.483,0,-0.4645,-0.4689,-0.4655,-0.4693,-0.4704,-0.4652,-0.4701,-0.4705,-0.4715,-0.4724,-0.4692,-0.4744,-0.4744,-0.4807,-0.4833,-0.4841,-0.4854,-0.4823,-0.4941,-0.4953,-0.4963,-0.5002,-0.5017,-0.4835,-0.4834,-0.4834,-0.4833,0,-0.4768,-0.4799,-0.4838,-0.4848,-0.4861,-0.4905,-0.4879,-0.4897,-0.4873,-0.4861,-0.491,-0.4906,-0.4927,-0.4939,-0.4917,-0.4999,-0.4982,-0.4946,-0.4893,-0.4985,-0.5021,-0.5036,-0.4842,-0.484,-0.4839,-0.4837,0,0,-0.4933,-0.4921,-0.4936,-0.4939,-0.4937,-0.4961,-0.5001,-0.5019,-0.5036,-0.5044,-0.5078,-0.5114,-0.508,-0.509,-0.5067,-0.51,-0.5188,-0.506,-0.506,-0.5086,-0.528,-0.5309,-0.5327,-0.5166,-0.5168,-0.5171,-0.528,0,-0.5042,-0.511,-0.508,-0.5152,-0.5181,-0.513,-0.5166,-0.5168,-0.5157,-0.518,-0.5167,-0.5194,-0.5147,-0.5152,-0.5182,-0.5171,-0.5227,-0.5162,-0.52,-0.5201,-0.5204,-0.5345,-0.5377,-0.5481,-0.5294,-0.5296,-0.5298,0,-0.5179,-0.5191,-0.5266,-0.5257,-0.5268,-0.5301,-0.5315,-0.5337,-0.5338,-0.5328,-0.5337,-0.5306,-0.5346,-0.529,-0.5344,-0.5301,-0.5313,-0.531,-0.5313,-0.5319,-0.5258,-0.5358,-0.5513,-0.553,-0.5319,-0.5317,-0.5316,0,-0.5295,-0.5329,-0.5378,-0.5382,-0.5373,-0.5397,-0.5395,-0.5393,-0.5405,-0.5417,-0.5426,-0.5442,-0.5452,-0.5466,-0.5441,-0.5402,-0.55,-0.5441,-0.5494,-0.5495,-0.552,-0.552,-0.5683,-0.5523,-0.5523,-0.5522,-0.5522,0,-0.5422,-0.5471,-0.543,-0.5461,-0.5513,-0.5477,-0.553,-0.5522,-0.552,-0.5549,-0.5505,-0.5533,-0.5497,-0.5521,-0.5501,-0.555,-0.5555,-0.5548,-0.5543,-0.5554,-0.5556,-0.5565,-0.5559,-0.5526,-0.5526,-0.5525,-0.5524,0,-0.5562,-0.5536,-0.5587,-0.5573,-0.557,-0.561,-0.5598,-0.5626,-0.561,-0.5647,-0.5653,-0.5629,-0.5655,-0.563,-0.5655,-0.5642,-0.5709,-0.5691,-0.5708,-0.5705,-0.576,-0.5756,-0.5938,-0.5961,-0.5783,-0.5785,-0.5786,0,-0.5647,-0.5683,-0.5671,-0.5687,-0.5687,-0.5712,-0.5724,-0.5689,-0.5704,-0.5707,-0.5735,-0.5757,-0.5773,-0.5817,-0.5803,-0.5822,-0.5806,-0.5868,-0.5809,-0.5819,-0.5811,-0.581,-0.5815,-0.5882,-0.5884,-0.5886,-0.5887,0,-0.5801,-0.5786,-0.5805,-0.5819,-0.5834,-0.5844,-0.585,-0.5865,-0.5829,-0.5848,-0.5873,-0.5886,-0.591,-0.5933,-0.5947,-0.5945,-0.5912,-0.5905,-0.5919,-0.5933,-0.5943,-0.5941,-0.5745,-0.5903,-0.5901,-0.59,-0.5899,-0.5899,-0.5918,-0.5948,-0.5944,-0.5966,-0.5966,-0.5973,-0.5999,-0.5985,-0.6005,-0.6022,-0.5999,-0.6032,-0.6031,-0.6045,-0.6047,-0.6072,-0.6046,-0.6065,-0.6071,-0.6077,-0.6086,-0.5935,-0.6074,-0.6073,-0.6073,-0.6072,-0.6072,0,-0.6073,-0.6067,-0.6087,-0.6097,-0.6114,-0.6077,-0.6082,-0.6099,-0.6128,-0.6129,-0.6145,-0.6174,-0.6196,-0.6181,-0.62,-0.6223,-0.6208,-0.6229,-0.6229,-0.6229,-0.6107,-0.6095,-0.6241,-0.6241,-0.6241,-0.6241,-0.6241,-0.6241,-0.6155,-0.6204,-0.6188,-0.6235,-0.6229,-0.626,-0.6266,-0.6271,-0.6272,-0.6307,-0.6324,-0.6313,-0.6308,-0.6325,-0.6344,-0.6339,-0.6349,-0.6377,-0.6367,-0.6254,-0.6238,-0.6222,-0.621,-0.6378,-0.6379,-0.6487,-0.6488,-0.6489]},{"header":{"parameterUnit":"m.s-1","parameterCategory":1,"la1":30.2991,"la2":30.254,"lo1":-89.0895,"lo2":-89.0444,"dy":0.0017,"dx":0.0017,"nx":28,"ny":28,"refTime":"2023-09-10T09:00:00:Z","depth":0,"parameterNumber":3,"parameterNumberName":"V-component_of_WINDS"},"data":[0,0,0,0,0,0,0,0,0,0,0,0,0,0,0,0,0,0,0,0,0,0,0,0,0,0,0,0,0,0,0,0,0,0,0,0,0,0,0,0,0,0,0,0,0,0,0,0,0,0,0,0,0,0,0,0,0,0,-4.6347,-4.6347,0,-4.6406,-4.6407,-4.6407,-4.6325,-4.6322,-4.632,-4.6317,-4.6373,-4.6377,-4.6381,0,0,0,0,0,0,0,0,0,0,0,0,0,-4.6158,-4.6162,-4.6347,-4.6348,-4.6348,-4.6406,-4.6407,-4.6407,-4.6326,-4.6322,-4.6319,-4.6315,-4.6371,-4.6376,-4.6381,0,0,0,0,0,0,0,0,0,0,0,0,0,-4.6231,-4.6163,-4.6347,-4.6315,-4.6312,-4.6406,-4.6407,-4.6408,-4.6327,-4.6322,-4.6318,-4.6314,-4.6369,-4.6376,-4.6382,-4.6508,0,0,-4.6401,-4.6404,0,0,0,0,0,0,0,0,-4.6227,-4.6238,-4.6319,-4.6317,-4.6315,-4.6354,-4.636,-4.6441,-4.6328,-4.6321,-4.6317,-4.6312,-4.637,-4.6376,-4.6396,-4.651,-4.6513,-4.6402,-4.6405,-4.6408,-4.641,0,0,0,0,0,0,0,-4.6222,-4.6235,-4.637,-4.632,-4.6317,-4.6296,-4.6301,-4.6375,-4.6369,-4.6321,-4.6316,-4.6324,-4.6368,-4.639,-4.6397,-4.6513,-4.6401,-4.6407,-4.6411,-4.6413,-4.6733,-4.6737,0,0,0,0,0,0,-4.6221,-4.6231,-4.6368,-4.6372,-4.6259,-4.6303,-4.6309,-4.6346,-4.6368,-4.6367,-4.6328,-4.632,-4.6382,-4.6389,-4.6398,-4.6547,-4.6408,-4.6414,-4.6417,-4.6728,-4.6734,-4.6739,0,0,0,0,0,0,-4.6218,-4.6234,-4.6366,-4.63,-4.6315,-4.631,-4.6353,-4.6349,-4.6372,-4.6373,-4.637,-4.6352,-4.6378,-4.6389,-4.6481,-4.6547,-4.6417,-4.6422,-4.6723,-4.673,-4.6736,-4.6845,0,0,0,0,0,0,-4.6213,-4.6234,-4.6283,-4.6302,-4.6319,-4.645,-4.6357,-4.6353,-4.6383,-4.6374,-4.6395,-4.6394,-4.6376,-4.6472,-4.6488,-4.6554,-4.6427,-4.6717,-4.6726,-4.6734,-4.6835,-4.6855,-4.6871,0,0,0,0,0,-4.6206,-4.631,-4.6286,-4.6303,-4.638,-4.6454,-4.6463,-4.6441,-4.6389,-4.6437,-4.6438,-4.6394,-4.6538,-4.6482,-4.6499,-4.6568,-4.6712,-4.6723,-4.6734,-4.6827,-4.6851,-4.6871,0,0,0,0,0,0,-4.6297,-4.6312,-4.6285,-4.6398,-4.6426,-4.644,-4.65,-4.6467,-4.6508,-4.6497,-4.6466,-4.6472,-4.657,-4.6578,-4.6516,-4.669,-4.6616,-4.6631,-4.6682,-4.6704,-4.6722,-4.6718,-4.6433,0,0,0,0,0,-4.633,-4.639,-4.6399,-4.6498,-4.6514,-4.6505,-4.6536,-4.6517,-4.6543,-4.6553,-4.656,-4.6586,-4.6637,-4.6671,-4.6718,-4.6836,-4.6839,-4.6892,-4.691,-4.6924,-4.6937,-4.6999,-4.7023,-4.6774,-4.6774,-4.6774,0,0,-4.6399,-4.6415,-4.6454,-4.6517,-4.6536,-4.6597,-4.6515,-4.6583,-4.6627,-4.6563,-4.665,-4.6657,-4.6683,-4.6789,-4.6835,-4.6798,-4.7006,-4.6938,-4.695,-4.6954,-4.7013,-4.7036,-4.7057,-4.6781,-4.678,-4.6779,0,0,-4.6557,-4.6575,-4.666,-4.6681,-4.6711,-4.6704,-4.6724,-4.6744,-4.6746,-4.6834,-4.6786,-4.6838,-4.6927,-4.6947,-4.6969,-4.7135,-4.7095,-4.7151,-4.7245,-4.7306,-4.7325,-4.7343,-4.7401,-4.7422,-4.7163,-4.7164,-4.7164,0,-4.6638,-4.6731,-4.6707,-4.6779,-4.6807,-4.6753,-4.6837,-4.6858,-4.6901,-4.6921,-4.6879,-4.6989,-4.7003,-4.7113,-4.7153,-4.7173,-4.7194,-4.7148,-4.7325,-4.7342,-4.7357,-4.7413,-4.7435,-4.717,-4.7169,-4.7169,-4.7168,0,-4.6829,-4.6893,-4.6958,-4.7003,-4.7038,-4.7116,-4.7102,-4.7141,-4.7118,-4.7116,-4.7205,-4.722,-4.7269,-4.7293,-4.7271,-4.74,-4.7375,-4.733,-4.7255,-4.7388,-4.7439,-4.746,-4.718,-4.7177,-4.7175,-4.7174,0,0,-4.7045,-4.7076,-4.71,-4.712,-4.7149,-4.7197,-4.7272,-4.7321,-4.7354,-4.7386,-4.7447,-4.7523,-4.7481,-4.7506,-4.7486,-4.754,-4.7669,-4.7487,-4.7488,-4.752,-4.781,-4.7844,-4.7869,-4.7644,-4.7647,-4.7651,-4.7808,0,-4.7202,-4.7333,-4.7313,-4.7439,-4.7497,-4.7447,-4.7511,-4.7535,-4.7535,-4.7583,-4.7581,-4.7636,-4.7577,-4.7592,-4.7643,-4.7643,-4.7727,-4.7631,-4.7698,-4.7701,-4.7693,-4.7896,-4.7932,-4.8079,-4.7828,-4.7831,-4.7833,0,-4.7402,-4.7443,-4.7575,-4.7595,-4.7618,-4.7677,-4.7721,-4.7768,-4.7793,-4.7789,-4.7818,-4.7788,-4.7861,-4.7785,-4.7884,-4.7819,-4.7845,-4.785,-4.7855,-4.7859,-4.7775,-4.7906,-4.8126,-4.8148,-4.7865,-4.7862,-4.786,0,-4.7546,-4.7633,-4.7723,-4.7742,-4.7767,-4.781,-4.7822,-4.7843,-4.7874,-4.7912,-4.7931,-4.7976,-4.8,-4.8035,-4.8017,-4.7964,-4.812,-4.8042,-4.8117,-4.8117,-4.8151,-4.8149,-4.8378,-4.8169,-4.8169,-4.8169,-4.8168,0,-4.7722,-4.7805,-4.7788,-4.7844,-4.7934,-4.791,-4.8,-4.8005,-4.8025,-4.8079,-4.8038,-4.8089,-4.8064,-4.8113,-4.8099,-4.8183,-4.8194,-4.8192,-4.8187,-4.8195,-4.8196,-4.8211,-4.82,-4.8175,-4.8173,-4.8172,-4.8171,0,-4.7898,-4.789,-4.7985,-4.8002,-4.8008,-4.8074,-4.8087,-4.8138,-4.8135,-4.8204,-4.8219,-4.8213,-4.8269,-4.8255,-4.8315,-4.8306,-4.8411,-4.8394,-4.8403,-4.8399,-4.8474,-4.8467,-4.8721,-4.8752,-4.8524,-4.8526,-4.8528,0,-4.8011,-4.8074,-4.8098,-4.8132,-4.8148,-4.8204,-4.8235,-4.8214,-4.8248,-4.8282,-4.8329,-4.8381,-4.8422,-4.8513,-4.8513,-4.8559,-4.8542,-4.8628,-4.8548,-4.8554,-4.8542,-4.8539,-4.8544,-4.8643,-4.8646,-4.8648,-4.865,0,-4.8212,-4.8206,-4.8254,-4.8301,-4.834,-4.8376,-4.8407,-4.8437,-4.8418,-4.8458,-4.8516,-4.8548,-4.861,-4.8662,-4.8704,-4.8714,-4.8679,-4.8675,-4.8694,-4.8703,-4.8706,-4.8705,-4.8446,-4.8669,-4.8667,-4.8666,-4.8664,-4.8664,-4.836,-4.8413,-4.8438,-4.8493,-4.8515,-4.8545,-4.8594,-4.8597,-4.8645,-4.8695,-4.8679,-4.8745,-4.8767,-4.8821,-4.8836,-4.8886,-4.8853,-4.8882,-4.8889,-4.8896,-4.8905,-4.8699,-4.8894,-4.8893,-4.8892,-4.8892,-4.8892,0,-4.8558,-4.8572,-4.8623,-4.8669,-4.8712,-4.8677,-4.8709,-4.8747,-4.8806,-4.8831,-4.8872,-4.8938,-4.8988,-4.8993,-4.904,-4.9078,-4.9063,-4.9091,-4.9088,-4.9091,-4.8932,-4.891,-4.9103,-4.9103,-4.9103,-4.9103,-4.9103,-4.9103,-4.8667,-4.8755,-4.8751,-4.8848,-4.8861,-4.8926,-4.8948,-4.8975,-4.8995,-4.9071,-4.9113,-4.9116,-4.9133,-4.9181,-4.9225,-4.9224,-4.9243,-4.9278,-4.9271,-4.9123,-4.9102,-4.9082,-4.9061,-4.9282,-4.9282,-4.9426,-4.9427,-4.9428]}]]